Weather History for Puyallup, WA

Change the Weather History Date:

Saturday, December 14, 2013

  Actual Average (KTCM) Record (KTCM)
Temperature  
Mean Temperature 40 °F -  
Max Temperature 46 °F 44 °F 60 °F (2002)
Min Temperature 35 °F 32 °F 17 °F (1967)
Degree Days  
Heating Degree Days 24    
Moisture  
Dew Point 41 °F    
Average Humidity 97    
Maximum Humidity 100    
Minimum Humidity 87    
Precipitation  
Precipitation 0.00 in - - ()
Sea Level Pressure  
Sea Level Pressure 30.39 in    
Wind  
Wind Speed 0 mph (SW)    
Max Wind Speed 5 mph    
Max Gust Speed -    
Visibility 8 miles    
Events Fog    
Averages and records for this station are not official NWS values.
T = Trace of Precipitation, MM = Missing Value Source: NWS Daily Summary

Daily Weather History Graph

Daily Weather History Graph

Search for Another Location

Airport:

Trip Planner

Search our weather history database for the weather conditions in past years. The results will help you decide how hot, cold, wet, or windy it might be!

Date:

Astronomy

Dec. 14, 2013 Rise Set
Actual Time 7:48 AM PST 4:19 PM PST
Civil Twilight 7:12 AM PST 4:55 PM PST
Nautical Twilight 6:33 AM PST 5:34 PM PST
Astronomical Twilight 5:56 AM PST 6:11 PM PST
Moon 2:51 PM PST (12/14) 5:07 AM PST (12/14)
Length of Visible Light 9h 42m
Length of Day
8h 31m
Waxing Gibbous, 94% of the Moon is Illuminated
Dec 14
Waxing Gibbous
Dec 17
Full
Dec 25
Last Quarter
Jan 1
New
Jan 7
First Quarter

Hourly Weather History & Observations

Time (PST) Temp. Windchill Dew Point Humidity Pressure Visibility Wind Dir Wind Speed Gust Speed Precip Events Conditions
12:15 AM 39.2 °F - 39.2 °F 100% 30.42 in 3.0 mi Calm Calm - N/A   Mist
12:35 AM 39.2 °F - 39.2 °F 100% 30.43 in 5.0 mi Calm Calm - N/A   Mist
12:55 AM 41.0 °F - 41.0 °F 100% 30.42 in 10.0 mi Calm Calm - N/A   Unknown
1:15 AM 39.2 °F - 39.2 °F 100% 30.42 in 10.0 mi Calm Calm - N/A   Unknown
1:35 AM 39.2 °F - 39.2 °F 100% 30.43 in 1.8 mi Calm Calm - N/A   Mist
1:55 AM 39.2 °F - 39.2 °F 100% 30.43 in 10.0 mi Calm Calm - N/A   Unknown
2:15 AM 37.4 °F - 37.4 °F 100% 30.44 in 0.8 mi Calm Calm - N/A   Mist
2:35 AM 35.6 °F - 35.6 °F 100% 30.44 in 0.5 mi Calm Calm - N/A Fog Fog
2:55 AM 35.6 °F - 35.6 °F 100% 30.44 in 1.8 mi Calm Calm - N/A   Mist
3:15 AM 35.6 °F - 35.6 °F 100% 30.45 in 1.8 mi Calm Calm - N/A   Mist
3:35 AM 35.6 °F - 35.6 °F 100% 30.44 in 1.5 mi Calm Calm - N/A   Mist
3:55 AM 35.6 °F - 35.6 °F 100% 30.43 in 4.0 mi Calm Calm - N/A   Mist
4:15 AM 35.6 °F - 35.6 °F 100% 30.41 in 2.5 mi Calm Calm - N/A   Mist
4:35 AM 37.4 °F 34.9 °F 37.4 °F 100% 30.35 in 9.0 mi SE 3.5 mph - N/A   Unknown
4:55 AM 39.2 °F - 39.2 °F 100% 30.37 in 10.0 mi Calm Calm - N/A   Unknown
5:15 AM 37.4 °F - 37.4 °F 100% 30.36 in 10.0 mi Calm Calm - N/A   Unknown
5:35 AM 37.4 °F - 37.4 °F 100% 30.38 in 10.0 mi Calm Calm - N/A   Unknown
5:55 AM 37.4 °F - 37.4 °F 100% 30.39 in 10.0 mi Calm Calm - N/A   Unknown
6:15 AM 39.2 °F - 39.2 °F 100% 30.39 in 10.0 mi Calm Calm - N/A   Unknown
6:35 AM 37.4 °F - 37.4 °F 100% 30.39 in 10.0 mi Calm Calm - N/A   Unknown
6:55 AM 37.4 °F - 37.4 °F 100% 30.37 in 10.0 mi Calm Calm - N/A   Unknown
7:15 AM 37.4 °F - 37.4 °F 100% 30.36 in 10.0 mi Calm Calm - N/A   Unknown
7:35 AM 35.6 °F - 35.6 °F 100% 30.37 in 3.0 mi Calm Calm - N/A   Mist
7:55 AM 35.6 °F - 35.6 °F 100% 30.37 in 1.8 mi Calm Calm - N/A   Mist
8:15 AM 35.6 °F - 35.6 °F 100% 30.36 in 6.0 mi Calm Calm - N/A   Mist
8:35 AM 37.4 °F - 37.4 °F 100% 30.37 in 0.2 mi Calm Calm - N/A Fog Fog
8:55 AM 37.4 °F - 37.4 °F 100% 30.36 in 5.0 mi Calm Calm - N/A   Mist
9:15 AM 37.4 °F - 37.4 °F 100% 30.37 in 6.0 mi Calm Calm - N/A   Mist
9:35 AM 39.2 °F - 39.2 °F 100% 30.37 in 7.0 mi Calm Calm - N/A   Unknown
9:55 AM 39.2 °F - 39.2 °F 100% 30.39 in 5.0 mi Calm Calm - N/A   Mist
10:15 AM 39.2 °F - 39.2 °F 100% 30.40 in 10.0 mi Calm Calm - N/A   Unknown
10:35 AM 39.2 °F - 39.2 °F 100% 30.40 in 10.0 mi Calm Calm - N/A   Unknown
10:55 AM 41.0 °F - 41.0 °F 100% 30.39 in 10.0 mi Calm Calm - N/A   Unknown
11:15 AM 41.0 °F - 41.0 °F 100% 30.39 in 10.0 mi Calm Calm - N/A   Unknown
11:35 AM 42.8 °F - 42.8 °F 100% 30.39 in 10.0 mi Calm Calm - N/A   Unknown
11:55 AM 44.6 °F - 42.8 °F 93% 30.38 in 10.0 mi Calm Calm - N/A   Unknown
12:15 PM 44.6 °F - 42.8 °F 93% 30.39 in 10.0 mi Calm Calm - N/A   Unknown
12:35 PM 44.6 °F - 42.8 °F 93% 30.39 in 10.0 mi Calm Calm - N/A   Unknown
12:55 PM 44.6 °F - 42.8 °F 93% 30.40 in 10.0 mi Calm Calm - N/A   Unknown
1:15 PM 44.6 °F - 42.8 °F 93% 30.38 in 10.0 mi Calm Calm - N/A   Unknown
1:35 PM 44.6 °F - 42.8 °F 93% 30.35 in 10.0 mi Calm Calm - N/A   Unknown
1:55 PM 44.6 °F - 42.8 °F 93% 30.33 in 10.0 mi Calm Calm - N/A   Unknown
2:15 PM 44.6 °F - 44.6 °F 100% 30.36 in 10.0 mi Calm Calm - N/A   Unknown
2:35 PM 44.6 °F - 44.6 °F 100% 30.37 in 10.0 mi Calm Calm - N/A   Unknown
2:55 PM 46.4 °F - 44.6 °F 93% 30.37 in 10.0 mi Calm Calm - N/A   Unknown
3:15 PM 46.4 °F 45.2 °F 44.6 °F 93% 30.38 in 10.0 mi WSW 3.5 mph - N/A   Unknown
3:35 PM 44.6 °F - 44.6 °F 100% 30.37 in 10.0 mi Calm Calm - N/A   Unknown
3:55 PM 44.6 °F - 44.6 °F 100% 30.37 in 10.0 mi Calm Calm - N/A   Unknown
4:15 PM 44.6 °F - 44.6 °F 100% 30.37 in 10.0 mi Calm Calm - N/A   Unknown
4:35 PM 44.6 °F - 44.6 °F 100% 30.38 in 10.0 mi Calm Calm - N/A   Unknown
4:55 PM 44.6 °F - 44.6 °F 100% 30.38 in 10.0 mi Calm Calm - N/A   Unknown
5:15 PM 44.6 °F - 44.6 °F 100% 30.38 in 10.0 mi Calm Calm - N/A   Unknown
5:35 PM 44.6 °F - 44.6 °F 100% 30.38 in 10.0 mi Calm Calm - N/A   Unknown
5:55 PM 44.6 °F - 44.6 °F 100% 30.37 in 10.0 mi Calm Calm - N/A   Unknown
6:15 PM 44.6 °F 42.2 °F 44.6 °F 100% 30.37 in 10.0 mi WSW 4.6 mph - N/A   Unknown
6:35 PM 44.6 °F - 44.6 °F 100% 30.37 in 10.0 mi Calm Calm - N/A   Unknown
6:55 PM 44.6 °F - 42.8 °F 93% 30.37 in 10.0 mi Calm Calm - N/A   Unknown
7:15 PM 44.6 °F - 42.8 °F 93% 30.37 in 10.0 mi Calm Calm - N/A   Unknown
7:35 PM 44.6 °F - 42.8 °F 93% 30.37 in 10.0 mi Calm Calm - N/A   Unknown
7:55 PM 44.6 °F - 44.6 °F 100% 30.37 in 10.0 mi Calm Calm - N/A   Unknown
8:15 PM 44.6 °F - 42.8 °F 93% 30.37 in 10.0 mi Calm Calm - N/A   Unknown
8:35 PM 44.6 °F - 42.8 °F 93% 30.38 in 10.0 mi Calm Calm - N/A   Unknown
8:55 PM 44.6 °F - 42.8 °F 93% 30.38 in 10.0 mi Calm Calm - N/A   Unknown
9:15 PM 44.6 °F - 42.8 °F 93% 30.39 in 10.0 mi Calm Calm - N/A   Unknown
9:35 PM 44.6 °F - 42.8 °F 93% 30.39 in 10.0 mi Calm Calm - N/A   Unknown
9:55 PM 44.6 °F - 42.8 °F 93% 30.38 in 10.0 mi Calm Calm - N/A   Unknown
10:15 PM 44.6 °F - 42.8 °F 93% 30.37 in 10.0 mi Calm Calm - N/A   Unknown
10:35 PM 44.6 °F - 41.0 °F 87% 30.38 in 10.0 mi Calm Calm - N/A   Unknown
10:55 PM 44.6 °F - 41.0 °F 87% 30.37 in 10.0 mi Calm Calm - N/A   Unknown
11:15 PM 46.4 °F - 42.8 °F 87% 30.37 in 10.0 mi Calm Calm - N/A   Unknown
11:35 PM 44.6 °F - 41.0 °F 87% 30.38 in 10.0 mi Calm Calm - N/A   Unknown
11:55 PM 46.4 °F - 42.8 °F 87% 30.38 in 10.0 mi Calm Calm - N/A   Unknown